• în România
  • Lista ţărilor
  • Pe 7 zile
  • Temperatura apei
  • Hartă satelitară
  • Meteo pe hartă
  • Widget-uri
  • user-avatar
    Intrare

    Meteo pe oră la Dremuchevo

    Astăzi, 25 Septembrie, Marţi

    Timp Temperatura Precipitaţii Vânt Presiune Umiditate
    00:00 +7°C° 1.3 mm 3 m/s 731 mmHg 94%
    01:00 +7°C° 1.3 mm 3 m/s 731 mmHg 94%
    02:00 +6°C° 1.3 mm 4 m/s 730 mmHg 94%
    03:00 +6°C° 1.7 mm 4 m/s 730 mmHg 94%
    04:00 +6°C° 1.7 mm 4 m/s 729 mmHg 94%
    05:00 +6°C° 1.7 mm 4 m/s 729 mmHg 94%
    06:00 +6°C° 1.4 mm 5 m/s 729 mmHg 94%
    07:00 +6°C° 1.4 mm 5 m/s 729 mmHg 93%
    08:00 +6°C° 1.4 mm 5 m/s 730 mmHg 92%
    09:00 +5°C° 0.8 mm 6 m/s 730 mmHg 91%
    10:00 +5°C° 0.8 mm 6 m/s 731 mmHg 90%
    11:00 +5°C° 0.8 mm 6 m/s 731 mmHg 89%
    12:00 +5°C° 0.7 mm 6 m/s 732 mmHg 88%
    13:00 +5°C° 0.7 mm 7 m/s 733 mmHg 87%
    14:00 +5°C° 0.7 mm 7 m/s 734 mmHg 86%
    15:00 +5°C° 0.3 mm 7 m/s 734 mmHg 85%
    16:00 +5°C° 0.3 mm 6 m/s 735 mmHg 84%
    17:00 +5°C° 0.3 mm 6 m/s 736 mmHg 82%
    18:00 +4°C° 0.1 mm 6 m/s 737 mmHg 82%
    19:00 +4°C° 0.1 mm 6 m/s 738 mmHg 82%
    20:00 +3°C° 0.1 mm 6 m/s 739 mmHg 82%
    21:00 +3°C° 0 mm 6 m/s 740 mmHg 81%
    22:00 +2°C° 0 mm 6 m/s 741 mmHg 80%
    23:00 +2°C° 0 mm 5 m/s 741 mmHg 80%

    Mâine, 26 Septembrie, Miercuri

    Timp Temperatura Precipitaţii Vânt Presiune Umiditate
    00:00 +1°C° 0 mm 5 m/s 742 mmHg 78%
    01:00 +1°C° 0 mm 5 m/s 743 mmHg 77%
    02:00 0°C° 0 mm 5 m/s 744 mmHg 76%
    03:00 0°C° 0 mm 4 m/s 744 mmHg 76%
    04:00 -1°C° 0 mm 4 m/s 745 mmHg 76%
    05:00 0°C° 0 mm 3 m/s 746 mmHg 76%
    06:00 +1°C° 0 mm 3 m/s 746 mmHg 74%
    07:00 +2°C° 0 mm 3 m/s 746 mmHg 71%
    08:00 +3°C° 0 mm 3 m/s 747 mmHg 69%
    09:00 +4°C° 0 mm 3 m/s 747 mmHg 66%
    10:00 +6°C° 0 mm 4 m/s 747 mmHg 64%
    11:00 +8°C° 0 mm 4 m/s 747 mmHg 61%
    12:00 +10°C° 0 mm 4 m/s 746 mmHg 60%
    13:00 +9°C° 0 mm 5 m/s 745 mmHg 59%
    14:00 +10°C° 0 mm 5 m/s 745 mmHg 58%
    15:00 +9°C° 0 mm 5 m/s 744 mmHg 59%
    16:00 +8°C° 0 mm 5 m/s 744 mmHg 61%
    17:00 +8°C° 0 mm 4 m/s 743 mmHg 63%
    18:00 +7°C° 0.1 mm 5 m/s 742 mmHg 65%
    19:00 +7°C° 0.1 mm 6 m/s 741 mmHg 66%
    20:00 +5°C° 0.1 mm 6 m/s 740 mmHg 68%
    21:00 +5°C° 1.1 mm 7 m/s 738 mmHg 74%
    22:00 +5°C° 1.1 mm 7 m/s 737 mmHg 80%
    23:00 +5°C° 1.1 mm 8 m/s 735 mmHg 86%

    Poimâine, 27 Septembrie, Joi

    Timp Temperatura Precipitaţii Vânt Presiune Umiditate
    00:00 +5°C° 1.5 mm 7 m/s 734 mmHg 87%
    01:00 +5°C° 1.5 mm 7 m/s 733 mmHg 88%
    02:00 +5°C° 1.5 mm 6 m/s 732 mmHg 89%
    03:00 +5°C° 0.8 mm 6 m/s 731 mmHg 89%
    04:00 +6°C° 0.8 mm 5 m/s 731 mmHg 90%
    05:00 +6°C° 0.8 mm 4 m/s 730 mmHg 90%
    06:00 +6°C° 0.1 mm 5 m/s 731 mmHg 86%
    07:00 +6°C° 0.1 mm 5 m/s 731 mmHg 82%
    08:00 +6°C° 0.1 mm 5 m/s 731 mmHg 78%
    09:00 +7°C° 0.2 mm 6 m/s 731 mmHg 74%
    10:00 +7°C° 0.2 mm 6 m/s 731 mmHg 70%
    11:00 +8°C° 0.2 mm 7 m/s 731 mmHg 66%
    12:00 +8°C° 0.1 mm 7 m/s 732 mmHg 64%
    13:00 +8°C° 0.1 mm 7 m/s 732 mmHg 63%
    14:00 +8°C° 0.1 mm 7 m/s 732 mmHg 61%
    15:00 +6°C° 0 mm 7 m/s 732 mmHg 63%
    16:00 +7°C° 0 mm 6 m/s 733 mmHg 65%
    17:00 +5°C° 0 mm 6 m/s 733 mmHg 68%
    18:00 +5°C° 0 mm 6 m/s 733 mmHg 69%
    19:00 +4°C° 0 mm 6 m/s 733 mmHg 69%
    20:00 +4°C° 0 mm 6 m/s 734 mmHg 70%
    21:00 +4°C° 0 mm 6 m/s 734 mmHg 71%
    22:00 +3°C° 0 mm 5 m/s 735 mmHg 73%
    23:00 +3°C° 0 mm 5 m/s 735 mmHg 74%

    28 Septembrie, Vineri

    Timp Temperatura Precipitaţii Vânt Presiune Umiditate
    00:00 +3°C° 0 mm 5 m/s 735 mmHg 75%
    01:00 +4°C° 0 mm 4 m/s 735 mmHg 77%
    02:00 +3°C° 0 mm 4 m/s 736 mmHg 78%
    03:00 +3°C° 0 mm 4 m/s 736 mmHg 79%
    04:00 +3°C° 0 mm 3 m/s 736 mmHg 81%
    05:00 +3°C° 0 mm 3 m/s 736 mmHg 82%
    06:00 +3°C° 0.2 mm 3 m/s 735 mmHg 84%
    07:00 +4°C° 0.2 mm 2 m/s 735 mmHg 85%
    08:00 +4°C° 0.2 mm 2 m/s 734 mmHg 86%
    09:00 +5°C° 0.4 mm 2 m/s 734 mmHg 84%
    10:00 +6°C° 0.4 mm 1 m/s 733 mmHg 82%
    11:00 +7°C° 0.4 mm 1 m/s 733 mmHg 80%
    12:00 +6°C° 0.3 mm 2 m/s 733 mmHg 78%
    13:00 +5°C° 0.3 mm 3 m/s 734 mmHg 76%
    14:00 +5°C° 0.3 mm 4 m/s 734 mmHg 73%
    15:00 +4°C° 0 mm 4 m/s 735 mmHg 73%
    16:00 +4°C° 0 mm 3 m/s 736 mmHg 73%
    17:00 +3°C° 0 mm 3 m/s 737 mmHg 73%
    18:00 +2°C° 0 mm 3 m/s 737 mmHg 75%
    19:00 +2°C° 0 mm 3 m/s 738 mmHg 76%
    20:00 +1°C° 0 mm 3 m/s 739 mmHg 78%
    21:00 +1°C° 0 mm 3 m/s 739 mmHg 80%
    22:00 0°C° 0 mm 3 m/s 740 mmHg 81%
    23:00 0°C° 0 mm 3 m/s 740 mmHg 83%

    29 Septembrie, Sâmbătă

    Timp Temperatura Precipitaţii Vânt Presiune Umiditate
    00:00 0°C° 0 mm 3 m/s 741 mmHg 84%
    01:00 0°C° 0 mm 3 m/s 741 mmHg 85%
    02:00 -1°C° 0 mm 2 m/s 742 mmHg 85%
    03:00 +1°C° 0.1 mm 2 m/s 742 mmHg 86%
    04:00 +1°C° 0.1 mm 2 m/s 742 mmHg 86%
    05:00 +1°C° 0.1 mm 2 m/s 743 mmHg 86%
    06:00 +2°C° 0.1 mm 2 m/s 743 mmHg 82%
    07:00 +2°C° 0.1 mm 2 m/s 743 mmHg 78%
    08:00 +3°C° 0.1 mm 2 m/s 744 mmHg 73%
    09:00 +4°C° 0 mm 2 m/s 744 mmHg 67%
    10:00 +4°C° 0 mm 3 m/s 745 mmHg 60%
    11:00 +5°C° 0 mm 3 m/s 745 mmHg 53%
    12:00 +5°C° 0.1 mm 3 m/s 746 mmHg 53%
    13:00 +5°C° 0.1 mm 3 m/s 746 mmHg 53%
    14:00 +7°C° 0.1 mm 3 m/s 746 mmHg 52%
    15:00 +5°C° 0 mm 3 m/s 746 mmHg 59%
    16:00 +4°C° 0 mm 2 m/s 747 mmHg 65%
    17:00 +3°C° 0 mm 2 m/s 747 mmHg 71%
    18:00 +3°C° 0 mm 2 m/s 748 mmHg 74%
    19:00 +3°C° 0 mm 1 m/s 748 mmHg 78%
    20:00 +2°C° 0 mm 1 m/s 748 mmHg 81%
    21:00 +1°C° 0 mm 2 m/s 748 mmHg 83%
    22:00 -1°C° 0 mm 2 m/s 749 mmHg 84%
    23:00 -1°C° 0 mm 2 m/s 749 mmHg 86%

    30 Septembrie, Duminică

    Timp Temperatura Precipitaţii Vânt Presiune Umiditate
    00:00 -1°C° 0 mm 2 m/s 749 mmHg 86%
    01:00 -1°C° 0 mm 2 m/s 749 mmHg 87%
    02:00 -1°C° 0 mm 3 m/s 749 mmHg 88%
    03:00 -1°C° 0 mm 3 m/s 749 mmHg 88%
    04:00 -1°C° 0 mm 3 m/s 749 mmHg 88%
    05:00 -1°C° 0 mm 3 m/s 749 mmHg 88%
    06:00 0°C° 0 mm 3 m/s 749 mmHg 84%
    07:00 0°C° 0 mm 4 m/s 749 mmHg 80%
    08:00 +1°C° 0 mm 4 m/s 749 mmHg 76%
    09:00 +4°C° 0 mm 4 m/s 749 mmHg 72%
    10:00 +5°C° 0 mm 4 m/s 749 mmHg 67%
    11:00 +7°C° 0 mm 4 m/s 749 mmHg 63%
    12:00 +7°C° 0 mm 5 m/s 748 mmHg 62%
    13:00 +7°C° 0 mm 5 m/s 748 mmHg 60%
    14:00 +8°C° 0 mm 5 m/s 748 mmHg 59%
    15:00 +7°C° 0 mm 4 m/s 747 mmHg 62%
    16:00 +6°C° 0 mm 4 m/s 747 mmHg 66%
    17:00 +5°C° 0 mm 4 m/s 747 mmHg 69%
    18:00 +4°C° 0 mm 4 m/s 747 mmHg 69%
    19:00 +3°C° 0 mm 4 m/s 747 mmHg 70%
    20:00 +3°C° 0 mm 4 m/s 746 mmHg 70%
    21:00 +3°C° 0 mm 4 m/s 746 mmHg 70%
    22:00 +1°C° 0 mm 4 m/s 746 mmHg 71%
    23:00 +1°C° 0 mm 4 m/s 746 mmHg 72%
    Arată mai mult